This demonstration page uses our WeatherBlox Daily Observations layout. Learn more.

Left ArrowRight Arrow

53.62937, 11.41316

Hourly Observations for November 17, 2020

Temp ( °F °C ) Dew Point ( °F °C ) Humidity (%) Winds ( mph kmh ) Pressure ( in mb ) Visibility ( mi km ) Precip ( " mm )
6:50 am 06:50 Mostly Cloudy 48 9 45 7 87 87 S 9 15 30.06 1018 30 48 N/A
7:20 am 07:20 Mostly Cloudy 48 9 45 7 87 87 S 9 15 30.06 1018 30 48 N/A
7:50 am 07:50 Mostly Cloudy 48 9 45 7 87 87 SSE 8 13 30.06 1018 30 48 N/A
8:20 am 08:20 Mostly Cloudy 48 9 46 8 94 94 S 9 15 30.06 1018 6 9 N/A
8:50 am 08:50 Mostly Cloudy with Mist and Fog 48 9 48 9 100 100 SSE 8 13 30.06 1018 2 4 N/A
9:20 am 09:20 Mostly Cloudy with Mist and Fog 48 9 48 9 100 100 S 10 17 30.06 1018 2 4 N/A
9:50 am 09:50 Mostly Cloudy with Mist and Fog 48 9 48 9 100 100 S 10 17 30.06 1018 2 4 N/A
10:20 am 10:20 Mostly Cloudy with Drizzle 48 9 48 9 100 100 S 10 17 30.06 1018 2 4 N/A
10:50 am 10:50 Mostly Cloudy with Drizzle 50 10 50 10 100 100 S 10 17 30.06 1018 2 4 N/A
11:20 am 11:20 Mostly Cloudy with Mist and Fog 50 10 50 10 100 100 S 12 19 30.06 1018 2 4 N/A
11:50 am 11:50 Mostly Cloudy with Mist and Fog 50 10 50 10 100 100 S 10 17 30.06 1018 2 4 N/A
12:20 pm 12:20 Mostly Cloudy with Mist and Fog 52 11 52 11 100 100 S 10 17 30.06 1018 2 4 N/A
12:50 pm 12:50 Mostly Cloudy 52 11 52 11 100 100 S 10 17 30.06 1018 2 4 N/A
1:20 pm 13:20 Mostly Cloudy 52 11 52 11 100 100 S 10 17 30.06 1018 4 6 N/A
1:50 pm 13:50 Mostly Cloudy 52 11 52 11 100 100 S 10 17 30.06 1018 4 6 N/A
2:20 pm 14:20 Mostly Cloudy 54 12 54 12 100 100 SSW 13 20 30.09 1019 30 48 N/A
2:50 pm 14:50 Mostly Cloudy with Mist and Fog 54 12 54 12 100 100 SSW 15 24 30.09 1019 3 4 N/A
3:20 pm 15:20 Mostly Cloudy with Mist and Fog 54 12 54 12 100 100 SSW 14 22 30.09 1019 2 4 N/A
3:50 pm 15:50 Mostly Cloudy 54 12 54 12 100 100 SSW 13 20 30.09 1019 30 48 N/A
4:20 pm 16:20 Mostly Cloudy 54 12 54 12 100 100 SSW 13 20 30.12 1020 30 48 N/A
4:50 pm 16:50 Mostly Cloudy 54 12 52 11 94 94 SSW 15 24 30.12 1020 30 48 N/A
5:20 pm 17:20 Mostly Cloudy 54 12 52 11 94 94 SSW 15 24 30.12 1020 30 48 N/A
5:50 pm 17:50 Mostly Cloudy with Drizzle 54 12 52 11 94 94 SSW 15 24 30.12 1020 5 8 N/A
6:20 pm 18:20 Mostly Cloudy with Drizzle 54 12 52 11 94 94 SSW 14 22 30.12 1020 30 48 N/A
6:50 pm 18:50 Mostly Cloudy 54 12 52 11 94 94 SSW 13 20 30.12 1020 30 48 N/A
7:20 pm 19:20 Mostly Cloudy 54 12 52 11 94 94 SSW 14 22 30.12 1020 30 48 N/A
7:50 pm 19:50 Mostly Cloudy 54 12 52 11 94 94 SSW 13 20 30.15 1021 30 48 N/A
8:20 pm 20:20 Mostly Cloudy 54 12 52 11 94 94 SSW 13 20 30.15 1021 30 48 N/A
8:50 pm 20:50 Mostly Cloudy 54 12 52 11 94 94 SSW 13 20 30.15 1021 30 48 N/A
9:20 pm 21:20 Mostly Cloudy 54 12 50 10 88 88 SSW 14 22 30.15 1021 30 48 N/A
9:50 pm 21:50 Mostly Cloudy with Drizzle 54 12 52 11 94 94 SSW 14 22 30.15 1021 30 48 N/A

Powered by AerisWeather